Weather History for Wichita Falls, TX

Change the Weather History Date:

Wednesday, January 30, 2013

  Actual Average Record
Temperature  
Mean Temperature 43 °F 43 °F  
Max Temperature 50 °F 56 °F 75 °F (1974)
Min Temperature 35 °F 31 °F 2 °F (1966)
Degree Days  
Heating Degree Days 22 22  
Month to date heating degree days 635 692  
Since 1 July heating degree days 1680 1889  
Moisture  
Dew Point 23 °F    
Average Humidity 51    
Maximum Humidity 79    
Minimum Humidity 22    
Precipitation  
Precipitation 0.00 in 0.04 in 1.51 in (1982)
Month to date precipitation 0.64 1.10  
Year to date precipitation 0.64 1.10  
Snow  
Snow 0.00 in 0.10 in - ()
Month to date snowfall T 1.4  
Since 1 July snowfall 3.5 2.7  
Snow Depth -    
Sea Level Pressure  
Sea Level Pressure 30.01 in    
Wind  
Wind Speed 16 mph (WNW)    
Max Wind Speed 29 mph    
Max Gust Speed 37 mph    
Visibility 10 miles    
Events      
T = Trace of Precipitation, MM = Missing Value Source: NWS Daily Summary

Daily Weather History Graph

Daily Weather History Graph

Search for Another Location

Airport:

Trip Planner

Search our weather history database for the weather conditions in past years. The results will help you decide how hot, cold, wet, or windy it might be!

Date:

Astronomy

Jan. 30, 2013 Rise Set
Actual Time 7:32 AM CST 6:02 PM CST
Civil Twilight 7:05 AM CST 6:29 PM CST
Nautical Twilight 6:35 AM CST 6:59 PM CST
Astronomical Twilight 6:06 AM CST 7:28 PM CST
Moon 9:49 PM CST (1/30) 9:13 AM CST (1/30)
Length of Visible Light 11h 23m
Length of Day
10h 30m
Waning Gibbous, 87% of the Moon is Illuminated
Jan 30
Waning Gibbous
Feb 3
Last Quarter
Feb 10
New
Feb 17
First Quarter
Feb 25
Full

Hourly Weather History & Observations

Time (CST) Temp. Windchill Dew Point Humidity Pressure Visibility Wind Dir Wind Speed Gust Speed Precip Events Conditions
12:52 AM 39.9 °F 31.1 °F 34.0 °F 79% 29.72 in 10.0 mi NW 17.3 mph - N/A   Clear
1:52 AM 39.9 °F 30.8 °F 33.1 °F 77% 29.75 in 10.0 mi WNW 18.4 mph 23.0 mph N/A   Mostly Cloudy
2:52 AM 41.0 °F 32.8 °F 30.9 °F 67% 29.79 in 10.0 mi NW 16.1 mph - N/A   Overcast
3:52 AM 41.0 °F 30.7 °F 28.9 °F 62% 29.82 in 10.0 mi NW 25.3 mph 31.1 mph N/A   Overcast
4:52 AM 37.9 °F 30.5 °F 28.9 °F 70% 29.85 in 10.0 mi WNW 11.5 mph - N/A   Partly Cloudy
5:52 AM 39.0 °F 29.6 °F 30.0 °F 70% 29.90 in 10.0 mi NW 18.4 mph - N/A   Mostly Cloudy
6:52 AM 37.0 °F 28.1 °F 27.0 °F 67% 29.95 in 10.0 mi NW 15.0 mph - N/A   Scattered Clouds
7:52 AM 39.0 °F 29.9 °F 27.0 °F 62% 29.99 in 10.0 mi NW 17.3 mph 23.0 mph N/A   Mostly Cloudy
8:52 AM 39.9 °F 29.0 °F 27.0 °F 60% 30.02 in 10.0 mi WNW 26.5 mph 36.8 mph N/A   Mostly Cloudy
9:52 AM 39.9 °F 29.5 °F 25.0 °F 55% 30.06 in 10.0 mi NW 24.2 mph 32.2 mph N/A   Partly Cloudy
10:52 AM 42.1 °F 32.8 °F 25.0 °F 51% 30.09 in 10.0 mi NW 21.9 mph - N/A   Partly Cloudy
11:52 AM 45.0 °F 37.6 °F 25.0 °F 46% 30.09 in 10.0 mi NW 17.3 mph 26.5 mph N/A   Partly Cloudy
12:52 PM 46.0 °F 37.8 °F 24.1 °F 42% 30.08 in 10.0 mi NW 23.0 mph 28.8 mph N/A   Partly Cloudy
1:52 PM 48.0 °F - 21.0 °F 34% 30.07 in 10.0 mi WNW 18.4 mph 28.8 mph N/A   Partly Cloudy
2:52 PM 48.9 °F - 18.0 °F 29% 30.05 in 10.0 mi NW 19.6 mph 26.5 mph N/A   Partly Cloudy
3:52 PM 50.0 °F - 14.0 °F 24% 30.06 in 10.0 mi WNW 17.3 mph 28.8 mph N/A   Partly Cloudy
4:52 PM 50.0 °F - 14.0 °F 24% 30.07 in 10.0 mi WNW 19.6 mph 26.5 mph N/A   Partly Cloudy
5:52 PM 48.0 °F - 14.0 °F 26% 30.07 in 10.0 mi West 12.7 mph - N/A   Clear
6:52 PM 45.0 °F 40.6 °F 14.0 °F 29% 30.08 in 10.0 mi West 8.1 mph - N/A   Clear
7:52 PM 39.0 °F 34.8 °F 17.1 °F 41% 30.09 in 10.0 mi SSW 5.8 mph - N/A   Clear
8:52 PM 37.9 °F 32.7 °F 18.0 °F 45% 30.11 in 10.0 mi SSW 6.9 mph - N/A   Clear
9:52 PM 37.9 °F 32.1 °F 18.0 °F 45% 30.11 in 10.0 mi SSW 8.1 mph - N/A   Clear
10:52 PM 37.0 °F 30.4 °F 19.0 °F 48% 30.11 in 10.0 mi SW 9.2 mph - N/A   Clear
11:52 PM 36.0 °F 28.5 °F 19.9 °F 52% 30.11 in 10.0 mi SW 10.4 mph - N/A   Clear